Location: Grange Rosano
(44.4500°N, 6.9667°E)
Time: 08:47:42
(UTC+00:00)

Lacrosse 5 rocket - Pass Details

Date: 26 May 2022
Orbit: 456 x 629 km, 57.0° (Epoch: 01 July)

Event Time Altitude Azimuth Distance (km) Brightness Sun altitude
Exits shadow 01:23:49 43° 154° (SSE) 720 1.6 -19.4°
Maximum altitude 01:24:16 46° 131° (SE) 697 1.7 -19.4°
Drops below altitude 10° 01:28:07 10° 58° (ENE) 1,787 4.8 -19.0°
Sets 01:30:28 0° 53° (NE) 2,716 6.1 -18.8°
